CW9352 Weather Reports


Display with metric or nautical units.
time (UTC)temp
F
wind
direction
speed
MPH
gust
MPH
rain 1hr
in
rain 24hr
in
rain mn
in
humidity
%
barometer
mb
20260902232517 87 291 0.0 2.0 0.00 0.01 0.01 79 1016.4
20260902230516 88 297 0.0 3.0 0.00 0.01 0.01 79 1016.2
20260902225515 88 294 0.0 2.0 0.00 0.01 0.01 78 1016.3
20260902224536 89 283 0.0 2.0 0.00 0.01 0.01 77 1016.4
20260902223516 90 288 0.0 1.0 0.00 0.01 0.01 75 1016.4
20260902222515 90 159 0.0 1.0 0.00 0.01 0.01 75 1016.4
20260902221535 90 154 0.0 1.0 0.00 0.01 0.01 75 1016.3
20260902220515 90 164 0.0 2.0 0.00 0.01 0.01 74 1016.5
20260902215535 90 209 1.0 2.0 0.00 0.01 0.01 74 1016.6
20260902214555 90 206 0.0 1.0 0.00 0.01 0.01 75 1016.7
20260902213515 90 115 0.0 4.0 0.00 0.01 0.01 76 1016.8
20260902212515 88 260 0.0 1.0 0.00 0.01 0.01 77 1016.9
20260902211515 85 71 0.0 2.0 0.00 0.01 0.01 79 1017.0
20260902210515 83 0.0 1.0 0.01 0.01 0.01 84 1017.1
20260902205515 81 0.0 0.0 0.01 0.01 0.01 87 1017.2
20260902204515 80 53 0.0 1.0 0.01 0.01 0.01 87 1017.4
20260902203515 80 41 0.0 1.0 0.01 0.01 0.01 85 1017.5
20260902202515 81 0.0 0.0 0.01 0.01 0.01 83 1017.6
20260902202015 81 0.0 5.0 0.01 0.01 0.01 82 1017.9
20260902201015 83 343 1.0 3.0 0.01 0.01 0.01 78 1018.4
20260902200035 87 33 0.0 4.0 0.00 0.00 0.00 74 1018.5
20260902195015 90 296 0.0 1.0 0.00 0.00 0.00 73 1018.2
20260902194015 91 284 0.0 4.0 0.00 0.00 0.00 70 1017.8
20260902193035 93 296 1.0 5.0 0.00 0.00 0.00 68 1017.7
20260902192015 93 261 1.0 4.0 0.00 0.00 0.00 68 1017.8
20260902191015 93 275 0.0 2.0 0.00 0.00 0.00 68 1018.2
20260902190015 91 321 0.0 4.0 0.00 0.00 0.00 70 1018.3
20260902185015 92 0.0 1.0 0.00 0.00 0.00 67 1018.4
20260902184015 93 0.0 0.0 0.00 0.00 0.00 64 1018.3
20260902183015 95 0.0 1.0 0.00 0.00 0.00 62 1018.5
20260902182015 96 143 1.0 4.0 0.00 0.00 0.00 61 1018.6
20260902181015 95 216 1.0 3.0 0.00 0.00 0.00 61 1018.7
20260902180015 94 139 1.0 5.0 0.00 0.00 0.00 60 1018.9
20260902175015 94 142 2.0 5.0 0.00 0.00 0.00 59 1018.9
20260902174035 95 149 2.0 6.0 0.00 0.00 0.00 58 1019.0
20260902173015 95 166 2.0 9.0 0.00 0.00 0.00 57 1019.1
20260902172035 95 129 1.0 5.0 0.00 0.00 0.00 60 1019.1
20260902171015 95 127 2.0 4.0 0.00 0.00 0.00 64 1019.2
20260902170015 95 165 1.0 5.0 0.00 0.00 0.00 65 1019.2
20260902165015 94 121 0.0 6.0 0.00 0.00 0.00 67 1019.2
20260902164015 94 148 0.0 3.0 0.00 0.00 0.00 68 1019.3
20260902163015 92 40 0.0 1.0 0.00 0.00 0.00 69 1019.4
20260902162015 92 104 0.0 3.0 0.00 0.00 0.00 69 1019.5
20260902161015 93 89 0.0 2.0 0.00 0.00 0.00 67 1019.5
20260902160015 92 40 0.0 4.0 0.00 0.00 0.00 68 1019.4
20260902155015 92 85 1.0 6.0 0.00 0.00 0.00 68 1019.4
20260902154035 91 92 1.0 5.0 0.00 0.00 0.00 70 1019.5
20260902153015 92 81 1.0 6.0 0.00 0.00 0.00 69 1019.6
20260902152015 91 94 1.0 4.0 0.00 0.00 0.00 70 1019.6
20260902151015 92 83 0.0 3.0 0.00 0.00 0.00 71 1019.6
20260902150015 91 53 0.0 1.0 0.00 0.00 0.00 71 1019.5
20260902145015 90 61 0.0 4.0 0.00 0.00 0.00 72 1019.5
20260902144015 90 72 0.0 3.0 0.00 0.00 0.00 73 1019.5
20260902143015 89 84 0.0 2.0 0.00 0.00 0.00 76 1019.5
20260902142015 88 66 0.0 5.0 0.00 0.00 0.00 76 1019.5
20260902141015 88 52 0.0 5.0 0.00 0.00 0.00 77 1019.4
20260902140015 87 80 2.0 6.0 0.00 0.00 0.00 78 1019.4
20260902135015 87 60 1.0 8.0 0.00 0.00 0.00 80 1019.5
20260902134037 87 47 0.0 6.0 0.00 0.00 0.00 81 1019.7
20260902133017 86 83 0.0 3.0 0.00 0.00 0.00 84 1019.7
20260902132017 85 57 0.0 2.0 0.00 0.00 0.00 86 1019.9
20260902131517 85 82 1.0 5.0 0.00 0.00 0.00 88 1019.8
20260902130017 83 60 0.0 4.0 0.00 0.00 0.00 90 1019.8
20260902125017 82 0.0 2.0 0.00 0.00 0.00 93 1019.7
20260902124017 81 51 0.0 2.0 0.00 0.00 0.00 96 1019.6
20260902123017 80 66 0.0 1.0 0.00 0.00 0.00 98 1019.6
20260902122017 78 62 0.0 1.0 0.00 0.00 0.00 99 1019.4
20260902121016 77 11 0.0 1.0 0.00 0.00 0.00 99 1019.3
20260902120017 77 0.0 0.0 0.00 0.00 0.00 99 1019.2
20260902115017 77 0.0 0.0 0.00 0.00 0.00 99 1019.1
20260902114036 77 0.0 0.0 0.00 0.00 0.00 98 1019.0
20260902113537 77 0.0 0.0 0.00 0.00 0.00 98 1018.9
20260902112515 77 0.0 0.0 0.00 0.00 0.00 98 1018.8
20260902112017 77 0.0 0.0 0.00 0.00 0.00 99 1018.7
20260902111018 77 0.0 0.0 0.00 0.00 0.00 98 1018.6
20260902110017 77 0.0 0.0 0.00 0.00 0.00 98 1018.5
20260902105017 76 0.0 0.0 0.00 0.00 0.00 98 1018.4
20260902104015 77 0.0 0.0 0.00 0.00 0.00 98 1018.5
20260902103017 76 0.0 0.0 0.00 0.00 0.00 98 1018.3
20260902102017 76 0.0 0.0 0.00 0.00 0.00 98 1018.2
20260902101017 76 0.0 0.0 0.00 0.00 0.00 98 1018.2
20260902100017 76 0.0 0.0 0.00 0.00 0.00 98 1018.2
20260902095016 76 0.0 0.0 0.00 0.00 0.00 98 1018.1
20260902094037 76 0.0 0.0 0.00 0.00 0.00 98 1018.0
20260902093017 76 0.0 0.0 0.00 0.00 0.00 98 1017.9
20260902092016 76 0.0 0.0 0.00 0.00 0.00 98 1017.8
20260902091017 77 0.0 0.0 0.00 0.00 0.00 98 1017.8
20260902090017 77 0.0 0.0 0.00 0.00 0.00 98 1017.8
20260902085017 77 0.0 0.0 0.00 0.00 0.00 98 1017.7
20260902084017 77 0.0 0.0 0.00 0.00 0.00 98 1017.6
20260902083017 77 0.0 0.0 0.00 0.00 0.00 98 1017.6
20260902082016 77 0.0 0.0 0.00 0.00 0.00 98 1017.5
20260902081038 77 0.0 0.0 0.00 0.00 0.00 98 1017.6
20260902080017 77 0.0 0.0 0.00 0.00 0.00 97 1017.6
20260902075016 77 0.0 0.0 0.00 0.00 0.00 97 1017.6
20260902074017 77 0.0 0.0 0.00 0.00 0.00 97 1017.6
20260902073057 77 0.0 0.0 0.00 0.00 0.00 97 1017.6
20260902072016 77 0.0 0.0 0.00 0.00 0.00 97 1017.7
20260902071017 78 0.0 0.0 0.00 0.00 0.00 97 1017.7
20260902070037 78 0.0 0.0 0.00 0.00 0.00 97 1017.9
20260902065017 78 0.0 0.0 0.00 0.00 0.00 97 1017.8
20260902064017 78 0.0 0.0 0.00 0.00 0.00 97 1017.9
20260902063038 78 0.0 0.0 0.00 0.00 0.00 97 1018.0
20260902062017 78 0.0 0.0 0.00 0.00 0.00 97 1018.0
20260902061057 78 0.0 0.0 0.00 0.00 0.00 97 1018.0
20260902060016 78 0.0 0.0 0.00 0.00 0.00 96 1018.1
20260902055016 78 0.0 0.0 0.00 0.00 0.00 96 1018.0
20260902054017 78 0.0 0.0 0.00 0.00 0.00 96 1018.1
20260902053017 78 0.0 0.0 0.00 0.00 0.00 96 1018.2
20260902052037 78 0.0 0.0 0.00 0.00 0.00 96 1018.2
20260902051017 79 0.0 0.0 0.00 0.00 0.00 95 1018.2
20260902050017 79 0.0 0.0 0.00 0.00 0.00 95 1018.2
20260902045017 79 0.0 0.0 0.00 0.00 0.00 95 1018.3
20260902044016 79 0.0 0.0 0.00 0.00 0.00 95 1018.4
20260902043018 79 0.0 0.0 0.00 0.00 0.00 95 1018.5
20260902042015 79 0.0 0.0 0.00 0.00 0.00 94 1018.5
20260902041016 80 0.0 0.0 0.00 0.00 0.00 94 1018.5
20260902040017 80 0.0 0.0 0.00 0.00 0.00 94 1018.6
20260902035036 80 0.0 0.0 0.00 0.00 0.00 94 1018.6
20260902034016 80 0.0 0.0 0.00 0.00 0.00 94 1018.6
20260902033016 80 0.0 0.0 0.00 0.00 0.00 93 1018.6
20260902032017 80 0.0 0.0 0.00 0.00 0.00 93 1018.7
20260902031036 81 0.0 0.0 0.00 0.00 0.00 92 1018.6
20260902030017 81 0.0 0.0 0.00 0.00 0.00 92 1018.6
20260902025016 81 0.0 0.0 0.00 0.00 0.00 92 1018.7
20260902024016 81 0.0 0.0 0.00 0.00 0.00 92 1018.7
20260902023036 81 0.0 0.0 0.00 0.00 0.00 91 1018.6
20260902022018 81 0.0 0.0 0.00 0.00 0.00 92 1018.5
20260902021036 81 0.0 0.0 0.00 0.00 0.00 91 1018.3
20260902020016 81 0.0 0.0 0.00 0.00 0.00 91 1018.2
20260902015016 81 0.0 0.0 0.00 0.00 0.00 91 1018.1
20260902014017 82 0.0 0.0 0.00 0.00 0.00 90 1017.9
20260902013016 82 0.0 0.0 0.00 0.00 0.00 90 1018.0
20260902012017 82 0.0 0.0 0.00 0.00 0.00 89 1017.8
20260902011016 83 0.0 0.0 0.00 0.00 0.00 88 1017.6
20260902010016 83 0.0 0.0 0.00 0.00 0.00 87 1017.5
20260902005018 83 0.0 0.0 0.00 0.00 0.00 86 1017.4
20260902004016 84 0.0 0.0 0.00 0.00 0.00 85 1017.5
20260902003016 84 0.0 0.0 0.00 0.00 0.00 84 1017.5
20260902002036 85 0.0 1.0 0.00 0.00 0.00 83 1017.5
20260902001016 85 297 0.0 1.0 0.00 0.00 0.00 83 1017.5
20260902000016 85 301 0.0 2.0 0.00 0.00 0.00 82 1017.4
20260901235016 86 299 0.0 6.0 0.00 0.00 0.00 81 1017.4
20260901234016 86 276 0.0 4.0 0.00 0.00 0.00 80 1017.4
20260901233016 86 292 0.0 3.0 0.00 0.00 0.00 79 1017.5